Location: Maccacari
(45.1333°N, 11.1333°E)
Time: 01:59:55
(UTC+00:00)

Vanguard 2 - Pass Details

Date: 21 January 2021
Orbit: 552 x 2938 km, 32.9° (Epoch: 05 March)

Event Time Altitude Azimuth Distance (km) Brightness Sun altitude
Rises 15:50:57 0° 207° (SSW) 2,711 11.5 1.7°
Maximum altitude 15:55:48 10° 154° (SSE) 1,994 9.7 1.0°
Drops below altitude 10° 15:55:53 10° 152° (SSE) 2,000 9.7 1.0°
Sets 16:01:33 0° 104° (ESE) 3,368 10.4 0.1°
